Roseau, MN

12:45 PM CST on February 10, 2016 (GMT -0600)
Roseau Municipal-Billberg

Weather History for KROX - January, 2013

Change the Weather History Date:

Wednesday, January 2, 2013

  Actual Average Record
Temperature  
Mean Temperature 14 °F -  
Max Temperature 21 °F 10 °F 35 °F (1964)
Min Temperature 8 °F -8 °F -40 °F (1968)
Degree Days  
Heating Degree Days 50    
Moisture  
Dew Point 12 °F    
Average Humidity 82    
Maximum Humidity 86    
Minimum Humidity 73    
Precipitation  
Precipitation 0.00 in - - ()
Sea Level Pressure  
Sea Level Pressure 29.91 in    
Wind  
Wind Speed 10 mph (West)    
Max Wind Speed 16 mph    
Max Gust Speed 16 mph    
Visibility 6 miles    
Events Snow    
Averages and records for this station are not official NWS values.
T = Trace of Precipitation, MM = Missing Value Source: NWS Daily Summary

Daily Weather History Graph

Daily Weather History Graph

Search for Another Location

Airport or City:

Trip Planner

Search our weather history database for the weather conditions in past years. The results will help you decide how hot, cold, wet, or windy it might be!

Date:

Astronomy

Jan. 02, 2013 Rise Set
Actual Time 8:16 AM CST 4:38 PM CST
Civil Twilight 7:39 AM CST 5:15 PM CST
Nautical Twilight 6:59 AM CST 5:55 PM CST
Astronomical Twilight 6:20 AM CST 6:33 PM CST
Moon 10:42 PM CST (1/2) 10:30 AM CST (1/2)
Length of Visible Light 9h 35m
Length of Day
8h 21m
Waning Gibbous, 75% of the Moon is Illuminated
Jan 2
Waning Gibbous
Jan 4
Last Quarter
Jan 11
New
Jan 18
First Quarter
Jan 26
Full

Hourly Weather History & Observations

Time (CST) Temp. Windchill Dew Point Humidity Pressure Visibility Wind Dir Wind Speed Gust Speed Precip Events Conditions
12:14 AM 19.4 °F 6.6 °F 15.8 °F 86% 29.78 in 4.0 mi SSW 12.7 mph - N/A Snow Light Snow
12:34 AM 19.4 °F 7.2 °F 15.8 °F 86% 29.77 in 2.5 mi SSW 11.5 mph - N/A Snow Light Snow
12:54 AM 19.4 °F 6.6 °F 15.8 °F 86% 29.77 in 2.5 mi SSW 12.7 mph - N/A Snow Light Snow
1:14 AM 19.4 °F 7.9 °F 15.8 °F 86% 29.76 in 2.0 mi SSW 10.4 mph - N/A Snow Light Snow
1:34 AM 19.4 °F 6.6 °F 15.8 °F 86% 29.75 in 2.5 mi SSW 12.7 mph - N/A Snow Light Snow
1:54 AM 19.4 °F 7.2 °F 14.0 °F 80% 29.75 in 2.0 mi SSW 11.5 mph - N/A Snow Light Snow
2:14 AM 19.4 °F 7.2 °F 15.8 °F 86% 29.76 in 7.0 mi SSW 11.5 mph - N/A   Mostly Cloudy
2:34 AM 19.4 °F 7.9 °F 15.8 °F 86% 29.76 in 10.0 mi SSW 10.4 mph - N/A   Mostly Cloudy
2:54 AM 19.4 °F 7.2 °F 15.8 °F 86% 29.75 in 5.0 mi SSW 11.5 mph - N/A   Haze
3:34 AM 19.4 °F 7.2 °F 15.8 °F 86% 29.75 in 7.0 mi SSW 11.5 mph - N/A   Overcast
3:54 AM 19.4 °F 7.9 °F 15.8 °F 86% 29.75 in 7.0 mi South 10.4 mph - N/A   Overcast
4:15 AM 19.4 °F 7.2 °F 15.8 °F 86% 29.75 in 3.0 mi SSW 11.5 mph - N/A   Haze
4:34 AM 19.4 °F 7.2 °F 15.8 °F 86% 29.75 in 4.0 mi South 11.5 mph - N/A   Overcast
4:54 AM 19.4 °F 7.2 °F 15.8 °F 86% 29.75 in 5.0 mi South 11.5 mph - N/A   Overcast
5:15 AM 19.4 °F 7.9 °F 15.8 °F 86% 29.75 in 7.0 mi South 10.4 mph - N/A   Overcast
5:34 AM 19.4 °F 8.6 °F 15.8 °F 86% 29.76 in 10.0 mi SSW 9.2 mph - N/A   Overcast
6:14 AM 19.4 °F 10.4 °F 15.8 °F 86% 29.76 in 7.0 mi South 6.9 mph - N/A   Overcast
6:34 AM 19.4 °F 9.5 °F 15.8 °F 86% 29.76 in 7.0 mi SSW 8.1 mph - N/A   Overcast
6:55 AM 19.4 °F 14.3 °F 15.8 °F 86% 29.77 in 7.0 mi SSW 3.5 mph - N/A   Overcast
7:14 AM 19.4 °F - 15.8 °F 86% 29.78 in 7.0 mi Calm Calm - N/A   Overcast
7:34 AM 19.4 °F - 15.8 °F 86% 29.79 in 7.0 mi Calm Calm - N/A   Overcast
7:55 AM 19.4 °F - 15.8 °F 86% 29.79 in 7.0 mi Calm Calm - N/A   Overcast
8:14 AM 19.4 °F 14.3 °F 15.8 °F 86% 29.79 in 7.0 mi SSW 3.5 mph - N/A   Overcast
8:34 AM 19.4 °F 14.3 °F 15.8 °F 86% 29.80 in 1.2 mi SW 3.5 mph - N/A Snow Light Snow
8:55 AM 19.4 °F 12.8 °F 15.8 °F 86% 29.81 in 3.0 mi SW 4.6 mph - N/A Snow Light Snow
9:14 AM 19.4 °F 12.8 °F 15.8 °F 86% 29.81 in 4.0 mi SW 4.6 mph - N/A Snow Light Snow
9:34 AM 19.4 °F 12.8 °F 15.8 °F 86% 29.82 in 5.0 mi SW 4.6 mph - N/A Snow Light Snow
9:55 AM 21.2 °F 14.9 °F 15.8 °F 80% 29.83 in 2.5 mi West 4.6 mph - N/A Snow Light Snow
10:14 AM 21.2 °F 14.9 °F 17.6 °F 86% 29.84 in 4.0 mi West 4.6 mph - N/A Snow Light Snow
10:34 AM 21.2 °F 10.9 °F 17.6 °F 86% 29.85 in 4.0 mi NW 9.2 mph - N/A Snow Light Snow
10:55 AM 21.2 °F 8.9 °F 17.6 °F 86% 29.86 in 4.0 mi NW 12.7 mph - N/A Snow Light Snow
11:14 AM 21.2 °F 10.9 °F 15.8 °F 80% 29.86 in 7.0 mi NW 9.2 mph - N/A   Scattered Clouds
11:34 AM 21.2 °F 10.9 °F 15.8 °F 80% 29.87 in 7.0 mi WNW 9.2 mph - N/A   Scattered Clouds
11:55 AM 19.4 °F 9.5 °F 15.8 °F 86% 29.88 in 7.0 mi WNW 8.1 mph - N/A   Clear
12:14 PM 19.4 °F 11.5 °F 15.8 °F 86% 29.88 in 5.0 mi WNW 5.8 mph - N/A   Haze
12:34 PM 19.4 °F 10.4 °F 14.0 °F 80% 29.88 in 5.0 mi WNW 6.9 mph - N/A   Haze
12:55 PM 19.4 °F 7.9 °F 14.0 °F 80% 29.89 in 5.0 mi WNW 10.4 mph - N/A   Haze
1:14 PM 19.4 °F 7.9 °F 12.2 °F 74% 29.90 in 4.0 mi WNW 10.4 mph - N/A Snow Light Snow
1:35 PM 19.4 °F 7.2 °F 12.2 °F 74% 29.91 in 4.0 mi NW 11.5 mph - N/A Snow Light Snow
1:54 PM 19.4 °F 7.9 °F 12.2 °F 74% 29.91 in 7.0 mi NNW 10.4 mph - N/A Snow Light Snow
2:14 PM 19.4 °F 9.5 °F 12.2 °F 74% 29.91 in 7.0 mi NNW 8.1 mph - N/A   Overcast
2:35 PM 19.4 °F 8.6 °F 12.2 °F 74% 29.92 in 10.0 mi NW 9.2 mph - N/A   Overcast
2:54 PM 19.4 °F 8.6 °F 12.2 °F 74% 29.92 in 7.0 mi NW 9.2 mph - N/A Snow Light Snow
3:14 PM 17.6 °F 7.3 °F 12.2 °F 79% 29.93 in 10.0 mi WNW 8.1 mph - N/A   Overcast
3:35 PM 15.8 °F 2.7 °F 10.4 °F 79% 29.95 in 5.0 mi West 11.5 mph 16.1 mph N/A Snow Light Snow
3:54 PM 15.8 °F 3.4 °F 10.4 °F 79% 29.96 in 5.0 mi West 10.4 mph - N/A Snow Light Snow
4:14 PM 15.8 °F 0.3 °F 10.4 °F 79% 29.98 in 5.0 mi NW 16.1 mph - N/A Snow Light Snow
4:35 PM 15.8 °F 1.4 °F 10.4 °F 79% 29.99 in 7.0 mi NW 13.8 mph - N/A Snow Light Snow
4:54 PM 14.0 °F 0.5 °F 8.6 °F 79% 30.00 in 7.0 mi WNW 11.5 mph - N/A Snow Light Snow
5:14 PM 14.0 °F 0.5 °F 8.6 °F 79% 30.02 in 7.0 mi WNW 11.5 mph - N/A Snow Light Snow
5:35 PM 14.0 °F -0.8 °F 8.6 °F 79% 30.03 in 7.0 mi NW 13.8 mph - N/A Snow Light Snow
5:54 PM 12.2 °F -1.8 °F 6.8 °F 79% 30.04 in 7.0 mi NW 11.5 mph - N/A Snow Light Snow
6:14 PM 12.2 °F -1.8 °F 6.8 °F 79% 30.06 in 7.0 mi NW 11.5 mph - N/A Snow Light Snow
6:54 PM 12.2 °F -3.1 °F 6.8 °F 79% 30.08 in 10.0 mi NNW 13.8 mph - N/A Snow Light Snow
7:14 PM 12.2 °F -3.1 °F 6.8 °F 79% 30.09 in 7.0 mi NNW 13.8 mph - N/A Snow Light Snow
7:33 PM 12.2 °F -1.8 °F 6.8 °F 79% 30.09 in 7.0 mi NNW 11.5 mph - N/A Snow Light Snow
7:54 PM 12.2 °F -2.5 °F 6.8 °F 79% 30.10 in 10.0 mi NNW 12.7 mph - N/A Snow Light Snow
8:14 PM 12.2 °F -2.5 °F 6.8 °F 79% 30.10 in 7.0 mi North 12.7 mph - N/A Snow Light Snow
8:34 PM 10.4 °F -6.0 °F 6.8 °F 85% 30.11 in 7.0 mi North 15.0 mph - N/A Snow Light Snow
8:54 PM 10.4 °F -6.0 °F 6.8 °F 85% 30.11 in 7.0 mi NNW 15.0 mph - N/A Snow Light Snow
9:14 PM 10.4 °F -6.6 °F 6.8 °F 85% 30.11 in 7.0 mi NNW 16.1 mph - N/A Snow Light Snow
9:34 PM 10.4 °F -3.3 °F 6.8 °F 85% 30.13 in 7.0 mi North 10.4 mph - N/A Snow Light Snow
9:54 PM 10.4 °F -4.8 °F 5.0 °F 79% 30.13 in 5.0 mi NNW 12.7 mph - N/A Snow Light Snow
10:15 PM 10.4 °F -3.3 °F 5.0 °F 79% 30.13 in 7.0 mi NNW 10.4 mph - N/A Snow Light Snow
10:34 PM 10.4 °F -4.1 °F 3.2 °F 73% 30.13 in 10.0 mi North 11.5 mph - N/A Snow Light Snow
10:54 PM 8.6 °F -5.5 °F 3.2 °F 79% 30.14 in 7.0 mi NNW 10.4 mph - N/A Snow Light Snow
11:14 PM 8.6 °F -4.7 °F 3.2 °F 79% 30.15 in 7.0 mi NNW 9.2 mph - N/A Snow Light Snow
11:34 PM 8.6 °F -4.7 °F 3.2 °F 79% 30.16 in 7.0 mi NNW 9.2 mph - N/A Snow Light Snow
11:54 PM 8.6 °F -3.7 °F 3.2 °F 79% 30.16 in 7.0 mi NNW 8.1 mph - N/A Snow Light Snow